Regional Weather Roundup
Issued by NWS Cleveland, OH

Home | Current Version | Previous Version | Graphics & Text | Print | Product List | Glossary On
Versions: 1 2 3 4 5 6 7 8 9 10 11 12 13 14 15 16 17 18 19 20 21 22 23 24 25 26 27 28 29 30 31 32 33 34 35 36 37 38 39 40 41 42 43 44 45 46 47 48 49 50
000
ASUS41 KCLE 290000
RWRCLE
OHIO REGIONAL WEATHER ROUNDUP
NATIONAL WEATHER SERVICE WILMINGTON, OH
800 PM EDT THU APR 28 2016

NOTE: "FAIR" INDICATES FEW OR NO CLOUDS BELOW 12,000 FEET WITH NO
SIGNIFICANT WEATHER AND/OR OBSTRUCTIONS TO VISIBILITY.

OHZ001>008-015>018-024>027-034-035-043-044-290100-
   NORTHWEST OHIO

CITY           SKY/WX    TMP DP  RH WIND       PRES   REMARKS
DEFIANCE       CLOUDY    50  38  63 NE8       29.96R
FINDLAY        CLOUDY    49  39  68 N13       29.94R
TOLEDO EXPRESS CLOUDY    46  36  68 NE17G23   29.96R
TOLEDO EXEC    CLOUDY    47  37  68 NE12      29.97R
LIMA           LGT RAIN  49  47  93 NE9       29.91S
$$

OHZ009>014-019>023-028>033-038-089-290100-
   NORTHEAST OHIO

CITY           SKY/WX    TMP DP  RH WIND       PRES   REMARKS
CLE-HOPKINS    CLOUDY    48  44  86 NE10      29.96S
CLE-LAKEFRONT  CLOUDY    48  45  89 NE12      29.93F
CUY CO. ARPT   CLOUDY    46  45  93 NE12      29.95S
LORAIN-ELYRIA  CLOUDY    46  42  86 NE8       29.95R
ASHTABULA      CLOUDY    45  43  93 NE6       29.97R
AKRON-CANTON   CLOUDY    48  44  86 E9        29.92S FOG
WOOSTER        NOT AVBL
MANSFIELD      CLOUDY    50  47  89 NE6       29.92R
YOUNGSTOWN     CLOUDY    46  43  89 E6        29.94S
$$

OHZ042-051>053-060>062-070>072-077>081-290100-
  SOUTHWEST OHIO

CITY           SKY/WX    TMP DP  RH WIND       PRES   REMARKS
CINC-COVINGTON FAIR      71  47  42 W15G25    29.86R
CINC-LUNKEN    FAIR      71  51  49 W14       29.85R
HAMILTON       FAIR      69  59  70 N10       29.87R
DAYTON         NOT AVBL
WRIGHT-PAT AFB NOT AVBL
DAYTON GENERAL MOCLDY    63  58  83 N8        29.86R HAZE
WILMINGTON     MOCLDY    63  60  90 NE13      29.86R FOG
$$

OHZ036-037-039>041-045>050-054>059-063>069-073>076-082>088-290100-
  CENTRAL AND SOUTHEAST OHIO

CITY           SKY/WX    TMP DP  RH WIND       PRES   REMARKS
COLUMBUS       CLOUDY    59  52  77 NE9       29.88R
OSU AIRPORT    MOCLDY    59  52  77 N10       29.87R
BOLTON FIELD   NOT AVBL
RICKENBACK AFB NOT AVBL
NEWARK         FAIR      59  51  75 NE6       29.88R
MARION         CLOUDY    53  48  83 NE9       29.91R HAZE
LANCASTER      LGT RAIN  61  55  81 NE7       29.89R
ZANESVILLE     MOCLDY    60  51  72 N7        29.90R
NEW PHILLY     CLOUDY    51  47  86 NE6       29.92R
$$



USA.gov is the U.S. government's official web portal to all federal, state and local government web resources and services.